Year,Month,Day,Hour,Minute,Value (Times are PST for temperature in C)
2018,04,27,00,00,12.90
2018,04,27,00,01,12.90
2018,04,27,00,02,12.90
2018,04,27,00,03,12.90
2018,04,27,00,04,12.90
2018,04,27,00,05,12.90
2018,04,27,00,06,12.90
2018,04,27,00,07,12.90
2018,04,27,00,08,12.90
2018,04,27,00,09,12.90
2018,04,27,00,10,12.90
2018,04,27,00,11,12.90
2018,04,27,00,12,12.90
2018,04,27,00,13,12.90
2018,04,27,00,14,12.90
2018,04,27,00,15,12.80
2018,04,27,00,16,12.80
2018,04,27,00,17,12.80
2018,04,27,00,18,12.80
2018,04,27,00,19,12.70
2018,04,27,00,20,12.70
2018,04,27,00,21,12.70
2018,04,27,00,22,12.70
2018,04,27,00,23,12.60
2018,04,27,00,24,12.60
2018,04,27,00,25,12.60
2018,04,27,00,26,12.50
2018,04,27,00,27,12.50
2018,04,27,00,28,12.40
2018,04,27,00,29,12.40
2018,04,27,00,30,12.30
2018,04,27,00,31,12.30
2018,04,27,00,32,12.30
2018,04,27,00,33,12.30
2018,04,27,00,34,12.30
2018,04,27,00,35,12.20
2018,04,27,00,36,12.20
2018,04,27,00,37,12.20
2018,04,27,00,38,12.20
2018,04,27,00,39,12.20
2018,04,27,00,40,12.20
2018,04,27,00,41,12.20
2018,04,27,00,42,12.20
2018,04,27,00,43,12.20
2018,04,27,00,44,12.20
2018,04,27,00,45,12.20
2018,04,27,00,46,12.20
2018,04,27,00,47,12.10
2018,04,27,00,48,12.10
2018,04,27,00,49,12.10
2018,04,27,00,50,12.10
2018,04,27,00,51,12.00
2018,04,27,00,52,12.00
2018,04,27,00,53,12.00
2018,04,27,00,54,11.90
2018,04,27,00,55,11.90
2018,04,27,00,56,11.90
2018,04,27,00,57,11.90
2018,04,27,00,58,11.90
2018,04,27,00,59,11.90
2018,04,27,01,00,11.90
2018,04,27,01,01,11.90
2018,04,27,01,02,11.90
2018,04,27,01,03,11.90
2018,04,27,01,04,11.90
2018,04,27,01,05,12.00
2018,04,27,01,06,12.00
2018,04,27,01,07,12.00
2018,04,27,01,08,12.00
2018,04,27,01,09,12.10
2018,04,27,01,10,12.10
2018,04,27,01,11,12.10
2018,04,27,01,12,12.00
2018,04,27,01,13,12.00
2018,04,27,01,14,12.00
2018,04,27,01,15,12.00
2018,04,27,01,16,12.00
2018,04,27,01,17,12.00
2018,04,27,01,18,12.00
2018,04,27,01,19,12.00
2018,04,27,01,20,12.00
2018,04,27,01,21,12.00
2018,04,27,01,22,12.00
2018,04,27,01,23,12.00
2018,04,27,01,24,12.10
2018,04,27,01,25,12.00
2018,04,27,01,26,12.10
2018,04,27,01,27,12.10
2018,04,27,01,28,12.10
2018,04,27,01,29,12.20
2018,04,27,01,30,12.20
2018,04,27,01,31,12.30
2018,04,27,01,32,12.30
2018,04,27,01,33,12.50
2018,04,27,01,34,12.70
2018,04,27,01,35,12.80
2018,04,27,01,36,12.90
2018,04,27,01,37,13.00
2018,04,27,01,38,13.00
2018,04,27,01,39,13.10
2018,04,27,01,40,13.10
2018,04,27,01,41,13.00
2018,04,27,01,42,13.00
2018,04,27,01,43,13.00
2018,04,27,01,44,13.00
2018,04,27,01,45,13.00
2018,04,27,01,46,12.90
2018,04,27,01,47,12.80
2018,04,27,01,48,12.80
2018,04,27,01,49,12.70
2018,04,27,01,50,12.70
2018,04,27,01,51,12.60
2018,04,27,01,52,12.60
2018,04,27,01,53,12.60
2018,04,27,01,54,12.60
2018,04,27,01,55,12.60
2018,04,27,01,56,12.60
2018,04,27,01,57,12.60
2018,04,27,01,58,12.60
2018,04,27,01,59,12.70
2018,04,27,02,00,12.70
2018,04,27,02,01,12.70
2018,04,27,02,02,12.70
2018,04,27,02,03,12.70
2018,04,27,02,04,12.70
2018,04,27,02,05,12.70
2018,04,27,02,06,12.70
2018,04,27,02,07,12.70
2018,04,27,02,08,12.70
2018,04,27,02,09,12.60
2018,04,27,02,10,12.60
2018,04,27,02,11,12.60
2018,04,27,02,12,12.60
2018,04,27,02,13,12.50
2018,04,27,02,14,12.50
2018,04,27,02,15,12.40
2018,04,27,02,16,12.40
2018,04,27,02,17,12.30
2018,04,27,02,18,12.30
2018,04,27,02,19,12.30
2018,04,27,02,20,12.20
2018,04,27,02,21,12.20
2018,04,27,02,22,12.20
2018,04,27,02,23,12.20
2018,04,27,02,24,12.10
2018,04,27,02,25,12.10
2018,04,27,02,26,12.10
2018,04,27,02,27,12.10
2018,04,27,02,28,12.10
2018,04,27,02,29,12.10
2018,04,27,02,30,12.10
2018,04,27,02,31,12.10
2018,04,27,02,32,12.10
2018,04,27,02,33,12.20
2018,04,27,02,34,12.20
2018,04,27,02,35,12.20
2018,04,27,02,36,12.20
2018,04,27,02,37,12.20
2018,04,27,02,38,12.30
2018,04,27,02,39,12.30
2018,04,27,02,40,12.30
2018,04,27,02,41,12.30
2018,04,27,02,42,12.30
2018,04,27,02,43,12.30
2018,04,27,02,44,12.30
2018,04,27,02,45,12.30
2018,04,27,02,46,12.40
2018,04,27,02,47,12.40
2018,04,27,02,48,12.40
2018,04,27,02,49,12.40
2018,04,27,02,50,12.40
2018,04,27,02,51,12.40
2018,04,27,02,52,12.40
2018,04,27,02,53,12.40
2018,04,27,02,54,12.40
2018,04,27,02,55,12.30
2018,04,27,02,56,12.30
2018,04,27,02,57,12.30
2018,04,27,02,58,12.30
2018,04,27,02,59,12.30
2018,04,27,03,00,12.30
2018,04,27,03,01,12.30
2018,04,27,03,02,12.30
2018,04,27,03,03,12.30
2018,04,27,03,04,12.30
2018,04,27,03,05,12.30
2018,04,27,03,06,12.30
2018,04,27,03,07,12.30
2018,04,27,03,08,12.30
2018,04,27,03,09,12.40
2018,04,27,03,10,12.40
2018,04,27,03,11,12.40
2018,04,27,03,12,12.40
2018,04,27,03,13,12.40
2018,04,27,03,14,12.50
2018,04,27,03,15,12.60
2018,04,27,03,16,12.60
2018,04,27,03,17,12.60
2018,04,27,03,18,12.60
2018,04,27,03,19,12.60
2018,04,27,03,20,12.60
2018,04,27,03,21,12.60
2018,04,27,03,22,12.60
2018,04,27,03,23,12.60
2018,04,27,03,24,12.60
2018,04,27,03,25,12.70
2018,04,27,03,26,12.70
2018,04,27,03,27,12.70
2018,04,27,03,28,12.70
2018,04,27,03,29,12.80
2018,04,27,03,30,12.80
2018,04,27,03,31,12.90
2018,04,27,03,32,12.90
2018,04,27,03,33,12.90
2018,04,27,03,34,13.00
2018,04,27,03,35,13.00
2018,04,27,03,36,13.00
2018,04,27,03,37,13.10
2018,04,27,03,38,13.10
2018,04,27,03,39,13.10
2018,04,27,03,40,13.10
2018,04,27,03,41,13.10
2018,04,27,03,42,13.10
2018,04,27,03,43,13.20
2018,04,27,03,44,13.20
2018,04,27,03,45,13.20
2018,04,27,03,46,13.20
2018,04,27,03,47,13.20
2018,04,27,03,48,13.20
2018,04,27,03,49,13.20
2018,04,27,03,50,13.20
2018,04,27,03,51,13.20
2018,04,27,03,52,13.20
2018,04,27,03,53,13.20
2018,04,27,03,54,13.10
2018,04,27,03,55,13.10
2018,04,27,03,56,13.00
2018,04,27,03,57,13.00
2018,04,27,03,58,12.90
2018,04,27,03,59,12.90
2018,04,27,04,00,12.80
2018,04,27,04,01,12.80
2018,04,27,04,02,12.70
2018,04,27,04,03,12.70
2018,04,27,04,04,12.70
2018,04,27,04,05,12.70
2018,04,27,04,06,12.60
2018,04,27,04,07,12.60
2018,04,27,04,08,12.50
2018,04,27,04,09,12.50
2018,04,27,04,10,12.40
2018,04,27,04,11,12.40
2018,04,27,04,12,12.40
2018,04,27,04,13,12.30
2018,04,27,04,14,12.30
2018,04,27,04,15,12.30
2018,04,27,04,16,12.20
2018,04,27,04,17,12.20
2018,04,27,04,18,12.10
2018,04,27,04,19,12.10
2018,04,27,04,20,12.10
2018,04,27,04,21,12.10
2018,04,27,04,22,12.10
2018,04,27,04,23,12.10
2018,04,27,04,24,12.10
2018,04,27,04,25,12.10
2018,04,27,04,26,12.10
2018,04,27,04,27,12.10
2018,04,27,04,28,12.00
2018,04,27,04,29,12.00
2018,04,27,04,30,12.00
2018,04,27,04,31,12.00
2018,04,27,04,32,12.00
2018,04,27,04,33,12.00
2018,04,27,04,34,11.90
2018,04,27,04,35,11.90
2018,04,27,04,36,11.90
2018,04,27,04,37,11.80
2018,04,27,04,38,11.80
2018,04,27,04,39,11.80
2018,04,27,04,40,11.80
2018,04,27,04,41,11.80
2018,04,27,04,42,11.80
2018,04,27,04,43,11.70
2018,04,27,04,44,11.70
2018,04,27,04,45,11.70
2018,04,27,04,46,11.70
2018,04,27,04,47,11.70
2018,04,27,04,48,11.70
2018,04,27,04,49,11.70
2018,04,27,04,50,11.70
2018,04,27,04,51,11.80
2018,04,27,04,52,11.80
2018,04,27,04,53,11.80
2018,04,27,04,54,11.80
2018,04,27,04,55,11.80
2018,04,27,04,56,11.80
2018,04,27,04,57,11.80
2018,04,27,04,58,11.70
2018,04,27,04,59,11.70
2018,04,27,05,00,11.70
2018,04,27,05,01,11.60
2018,04,27,05,02,11.60
2018,04,27,05,03,11.60
2018,04,27,05,04,11.50
2018,04,27,05,05,11.50
2018,04,27,05,06,11.50
2018,04,27,05,07,11.60
2018,04,27,05,08,11.60
2018,04,27,05,09,11.60
2018,04,27,05,10,11.60
2018,04,27,05,11,11.60
2018,04,27,05,12,11.60
2018,04,27,05,13,11.60
2018,04,27,05,14,11.60
2018,04,27,05,15,11.60
2018,04,27,05,16,11.60
2018,04,27,05,17,11.60
2018,04,27,05,18,11.60
2018,04,27,05,19,11.60
2018,04,27,05,20,11.60
2018,04,27,05,21,11.50
2018,04,27,05,22,11.50
2018,04,27,05,23,11.40
2018,04,27,05,24,11.40
2018,04,27,05,25,11.50
2018,04,27,05,26,11.50
2018,04,27,05,27,11.60
2018,04,27,05,28,11.70
2018,04,27,05,29,11.70
2018,04,27,05,30,11.80
2018,04,27,05,31,11.80
2018,04,27,05,32,11.80
2018,04,27,05,33,11.80
2018,04,27,05,34,11.80
2018,04,27,05,35,11.80
2018,04,27,05,36,11.70
2018,04,27,05,37,11.60
2018,04,27,05,38,11.60
2018,04,27,05,39,11.50
2018,04,27,05,40,11.40
2018,04,27,05,41,11.40
2018,04,27,05,42,11.30
2018,04,27,05,43,11.30
2018,04,27,05,44,11.30
2018,04,27,05,45,11.30
2018,04,27,05,46,11.30
2018,04,27,05,47,11.30
2018,04,27,05,48,11.20
2018,04,27,05,49,11.20
2018,04,27,05,50,11.20
2018,04,27,05,51,11.20
2018,04,27,05,52,11.20
2018,04,27,05,53,11.20
2018,04,27,05,54,11.20
2018,04,27,05,55,11.20
2018,04,27,05,56,11.20
2018,04,27,05,57,11.20
2018,04,27,05,58,11.30
2018,04,27,05,59,11.40
2018,04,27,06,00,11.40
2018,04,27,06,01,11.40
2018,04,27,06,02,11.40
2018,04,27,06,03,11.40
2018,04,27,06,04,11.40
2018,04,27,06,05,11.40
2018,04,27,06,06,11.40
2018,04,27,06,07,11.40
2018,04,27,06,08,11.40
2018,04,27,06,09,11.40
2018,04,27,06,10,11.50
2018,04,27,06,11,11.50
2018,04,27,06,12,11.50
2018,04,27,06,13,11.60
2018,04,27,06,14,11.60
2018,04,27,06,15,11.70
2018,04,27,06,16,11.80
2018,04,27,06,17,11.80
2018,04,27,06,18,11.80
2018,04,27,06,19,11.90
2018,04,27,06,20,11.90
2018,04,27,06,21,11.90
2018,04,27,06,22,12.00
2018,04,27,06,23,12.00
2018,04,27,06,24,12.10
2018,04,27,06,25,12.20
2018,04,27,06,26,12.20
2018,04,27,06,27,12.20
2018,04,27,06,28,12.20
2018,04,27,06,29,12.10
2018,04,27,06,30,12.10
2018,04,27,06,31,12.00
2018,04,27,06,32,12.00
2018,04,27,06,33,11.90
2018,04,27,06,34,11.90
2018,04,27,06,35,11.90
2018,04,27,06,36,11.80
2018,04,27,06,37,11.80
2018,04,27,06,38,11.80
2018,04,27,06,39,11.80
2018,04,27,06,40,11.80
2018,04,27,06,41,11.80
2018,04,27,06,42,11.80
2018,04,27,06,43,11.80
2018,04,27,06,44,11.80
2018,04,27,06,45,11.80
2018,04,27,06,46,11.80
2018,04,27,06,47,11.80
2018,04,27,06,48,11.80
2018,04,27,06,49,11.80
2018,04,27,06,50,11.80
2018,04,27,06,51,11.80
2018,04,27,06,52,11.70
2018,04,27,06,53,11.70
2018,04,27,06,54,11.70
2018,04,27,06,55,11.70
2018,04,27,06,56,11.70
2018,04,27,06,57,11.70
2018,04,27,06,58,11.70
2018,04,27,06,59,11.70
2018,04,27,07,00,11.70
2018,04,27,07,01,11.70
2018,04,27,07,02,11.70
2018,04,27,07,03,11.70
2018,04,27,07,04,11.70
2018,04,27,07,05,11.70
2018,04,27,07,06,11.70
2018,04,27,07,07,11.80
2018,04,27,07,08,11.80
2018,04,27,07,09,11.80
2018,04,27,07,10,11.80
2018,04,27,07,11,11.90
2018,04,27,07,12,11.90
2018,04,27,07,13,11.90
2018,04,27,07,14,12.00
2018,04,27,07,15,12.00
2018,04,27,07,16,12.10
2018,04,27,07,17,12.10
2018,04,27,07,18,12.20
2018,04,27,07,19,12.20
2018,04,27,07,20,12.30
2018,04,27,07,21,12.30
2018,04,27,07,22,12.40
2018,04,27,07,23,12.60
2018,04,27,07,24,12.70
2018,04,27,07,25,12.80
2018,04,27,07,26,12.90
2018,04,27,07,27,13.00
2018,04,27,07,28,13.10
2018,04,27,07,29,13.20
2018,04,27,07,30,13.30
2018,04,27,07,31,13.30
2018,04,27,07,32,13.40
2018,04,27,07,33,13.50
2018,04,27,07,34,13.50
2018,04,27,07,35,13.60
2018,04,27,07,36,13.70
2018,04,27,07,37,13.70
2018,04,27,07,38,13.70
2018,04,27,07,39,13.70
2018,04,27,07,40,13.80
2018,04,27,07,41,13.90
2018,04,27,07,42,14.00
2018,04,27,07,43,14.10
2018,04,27,07,44,14.20
2018,04,27,07,45,14.30
2018,04,27,07,46,14.30
2018,04,27,07,47,14.40
2018,04,27,07,48,14.50
2018,04,27,07,49,14.60
2018,04,27,07,50,14.70
2018,04,27,07,51,14.80
2018,04,27,07,52,14.90
2018,04,27,07,53,15.00
2018,04,27,07,54,15.00
2018,04,27,07,55,15.00
2018,04,27,07,56,15.10
2018,04,27,07,57,15.20
2018,04,27,07,58,15.30
2018,04,27,07,59,15.50
2018,04,27,08,00,15.60
2018,04,27,08,01,15.80
2018,04,27,08,02,15.90
2018,04,27,08,03,16.10
2018,04,27,08,04,16.20
2018,04,27,08,05,16.30
2018,04,27,08,06,16.40
2018,04,27,08,07,16.50
2018,04,27,08,08,16.50
2018,04,27,08,09,16.60
2018,04,27,08,10,16.70
2018,04,27,08,11,16.70
2018,04,27,08,12,16.70
2018,04,27,08,13,16.70
2018,04,27,08,14,16.70
2018,04,27,08,15,16.70
2018,04,27,08,16,16.80
2018,04,27,08,17,16.80
2018,04,27,08,18,16.80
2018,04,27,08,19,16.90
2018,04,27,08,20,17.00
2018,04,27,08,21,17.00
2018,04,27,08,22,17.00
2018,04,27,08,23,17.10
2018,04,27,08,24,17.10
2018,04,27,08,25,17.10
2018,04,27,08,26,17.00
2018,04,27,08,27,16.90
2018,04,27,08,28,16.80
2018,04,27,08,29,16.70
2018,04,27,08,30,16.70
2018,04,27,08,31,16.60
2018,04,27,08,32,16.60
2018,04,27,08,33,16.70
2018,04,27,08,34,16.70
2018,04,27,08,35,16.70
2018,04,27,08,36,16.70
2018,04,27,08,37,16.70
2018,04,27,08,38,16.70
2018,04,27,08,39,16.70
2018,04,27,08,40,16.70
2018,04,27,08,41,16.70
2018,04,27,08,42,16.70
2018,04,27,08,43,16.70
2018,04,27,08,44,16.70
2018,04,27,08,45,16.70
2018,04,27,08,46,16.70
2018,04,27,08,47,16.60
2018,04,27,08,48,16.60
2018,04,27,08,49,16.60
2018,04,27,08,50,16.60
2018,04,27,08,51,16.60
2018,04,27,08,52,16.60
2018,04,27,08,53,16.70
2018,04,27,08,54,16.70
2018,04,27,08,55,16.80
2018,04,27,08,56,16.90
2018,04,27,08,57,17.00
2018,04,27,08,58,17.10
2018,04,27,08,59,17.20
2018,04,27,09,00,17.30
2018,04,27,09,01,17.40
2018,04,27,09,02,17.60
2018,04,27,09,03,17.70
2018,04,27,09,04,17.80
2018,04,27,09,05,17.80
2018,04,27,09,06,17.90
2018,04,27,09,07,17.90
2018,04,27,09,08,17.80
2018,04,27,09,09,17.80
2018,04,27,09,10,17.80
2018,04,27,09,11,17.70
2018,04,27,09,12,17.70
2018,04,27,09,13,17.50
2018,04,27,09,14,17.30
2018,04,27,09,15,17.10
2018,04,27,09,16,16.90
2018,04,27,09,17,16.80
2018,04,27,09,18,16.90
2018,04,27,09,19,16.90
2018,04,27,09,20,16.90
2018,04,27,09,21,16.90
2018,04,27,09,22,16.90
2018,04,27,09,23,16.90
2018,04,27,09,24,17.00
2018,04,27,09,25,16.90
2018,04,27,09,26,16.80
2018,04,27,09,27,16.60
2018,04,27,09,28,16.40
2018,04,27,09,29,16.30
2018,04,27,09,30,16.20
2018,04,27,09,31,16.20
2018,04,27,09,32,16.30
2018,04,27,09,33,16.30
2018,04,27,09,34,16.30
2018,04,27,09,35,16.40
2018,04,27,09,36,16.50
2018,04,27,09,37,16.60
2018,04,27,09,38,16.70
2018,04,27,09,39,16.80
2018,04,27,09,40,16.90
2018,04,27,09,41,17.00
2018,04,27,09,42,17.00
2018,04,27,09,43,17.10
2018,04,27,09,44,17.10
2018,04,27,09,45,17.10
2018,04,27,09,46,17.10
2018,04,27,09,47,17.10
2018,04,27,09,48,17.10
2018,04,27,09,49,17.10
2018,04,27,09,50,17.10
2018,04,27,09,51,17.10
2018,04,27,09,52,17.10
2018,04,27,09,53,17.20
2018,04,27,09,54,17.30
2018,04,27,09,55,17.30
2018,04,27,09,56,17.40
2018,04,27,09,57,17.40
2018,04,27,09,58,17.40
2018,04,27,09,59,17.50
2018,04,27,10,00,17.50
2018,04,27,10,01,17.60
2018,04,27,10,02,17.70
2018,04,27,10,03,17.50
2018,04,27,10,04,17.40
2018,04,27,10,05,17.30
2018,04,27,10,06,17.30
2018,04,27,10,07,17.20
2018,04,27,10,08,17.00
2018,04,27,10,09,16.90
2018,04,27,10,10,16.80
2018,04,27,10,11,16.70
2018,04,27,10,12,16.60
2018,04,27,10,13,16.60
2018,04,27,10,14,16.50
2018,04,27,10,15,16.50
2018,04,27,10,16,16.50
2018,04,27,10,17,16.60
2018,04,27,10,18,16.70
2018,04,27,10,19,16.70
2018,04,27,10,20,16.80
2018,04,27,10,21,16.80
2018,04,27,10,22,16.90
2018,04,27,10,23,17.00
2018,04,27,10,24,17.00
2018,04,27,10,25,16.90
2018,04,27,10,26,17.00
2018,04,27,10,27,17.00
2018,04,27,10,28,17.10
2018,04,27,10,29,17.10
2018,04,27,10,30,17.10
2018,04,27,10,31,17.10
2018,04,27,10,32,17.10
2018,04,27,10,33,17.10
2018,04,27,10,34,17.10
2018,04,27,10,35,17.10
2018,04,27,10,36,17.00
2018,04,27,10,37,16.90
2018,04,27,10,38,16.90
2018,04,27,10,39,16.90
2018,04,27,10,40,16.90
2018,04,27,10,41,16.90
2018,04,27,10,42,17.00
2018,04,27,10,43,17.00
2018,04,27,10,44,17.10
2018,04,27,10,45,17.10
2018,04,27,10,46,17.00
2018,04,27,10,47,17.00
2018,04,27,10,48,16.90
2018,04,27,10,49,16.90
2018,04,27,10,50,16.90
2018,04,27,10,51,16.90
2018,04,27,10,52,16.90
2018,04,27,10,53,16.80
2018,04,27,10,54,16.80
2018,04,27,10,55,16.80
2018,04,27,10,56,16.70
2018,04,27,10,57,16.70
2018,04,27,10,58,16.70
2018,04,27,10,59,16.70
2018,04,27,11,00,16.70
2018,04,27,11,01,16.70
2018,04,27,11,02,16.70
2018,04,27,11,03,16.60
2018,04,27,11,04,16.50
2018,04,27,11,05,16.50
2018,04,27,11,06,16.50
2018,04,27,11,07,16.40
2018,04,27,11,08,16.40
2018,04,27,11,09,16.40
2018,04,27,11,10,16.40
2018,04,27,11,11,16.50
2018,04,27,11,12,16.50
2018,04,27,11,13,16.40
2018,04,27,11,14,16.50
2018,04,27,11,15,16.50
2018,04,27,11,16,16.40
2018,04,27,11,17,16.40
2018,04,27,11,18,16.30
2018,04,27,11,19,16.20
2018,04,27,11,20,16.00
2018,04,27,11,21,15.80
2018,04,27,11,22,15.60
2018,04,27,11,23,15.50
2018,04,27,11,24,15.30
2018,04,27,11,25,15.10
2018,04,27,11,26,15.10
2018,04,27,11,27,15.10
2018,04,27,11,28,15.00
2018,04,27,11,29,15.00
2018,04,27,11,30,15.00
2018,04,27,11,31,15.00
2018,04,27,11,32,15.00
2018,04,27,11,33,15.00
2018,04,27,11,34,15.00
2018,04,27,11,35,15.00
2018,04,27,11,36,15.00
2018,04,27,11,37,15.00
2018,04,27,11,38,15.00
2018,04,27,11,39,15.00
2018,04,27,11,40,15.10
2018,04,27,11,41,15.30
2018,04,27,11,42,15.40
2018,04,27,11,43,15.50
2018,04,27,11,44,15.50
2018,04,27,11,45,15.50
2018,04,27,11,46,15.50
2018,04,27,11,47,15.50
2018,04,27,11,48,15.50
2018,04,27,11,49,15.40
2018,04,27,11,50,15.50
2018,04,27,11,51,15.60
2018,04,27,11,52,15.60
2018,04,27,11,53,15.70
2018,04,27,11,54,15.80
2018,04,27,11,55,15.90
2018,04,27,11,56,16.00
2018,04,27,11,57,16.10
2018,04,27,11,58,16.20
2018,04,27,11,59,16.30
2018,04,27,12,00,16.30
2018,04,27,12,01,16.30
2018,04,27,12,02,16.30
2018,04,27,12,03,16.20
2018,04,27,12,04,16.20
2018,04,27,12,05,16.10
2018,04,27,12,06,16.10
2018,04,27,12,07,16.00
2018,04,27,12,08,15.90
2018,04,27,12,09,15.80
2018,04,27,12,10,15.80
2018,04,27,12,11,15.80
2018,04,27,12,12,15.80
2018,04,27,12,13,15.90
2018,04,27,12,14,15.90
2018,04,27,12,15,15.80
2018,04,27,12,16,15.60
2018,04,27,12,17,15.50
2018,04,27,12,18,15.40
2018,04,27,12,19,15.40
2018,04,27,12,20,15.50
2018,04,27,12,21,15.60
2018,04,27,12,22,15.70
2018,04,27,12,23,15.70
2018,04,27,12,24,15.80
2018,04,27,12,25,15.80
2018,04,27,12,26,15.80
2018,04,27,12,27,15.70
2018,04,27,12,28,15.80
2018,04,27,12,29,15.70
2018,04,27,12,30,15.70
2018,04,27,12,31,15.70
2018,04,27,12,32,15.70
2018,04,27,12,33,15.70
2018,04,27,12,34,15.70
2018,04,27,12,35,15.70
2018,04,27,12,36,15.70
2018,04,27,12,37,15.60
2018,04,27,12,38,15.60
2018,04,27,12,39,15.60
2018,04,27,12,40,15.60
2018,04,27,12,41,15.60
2018,04,27,12,42,15.60
2018,04,27,12,43,15.70
2018,04,27,12,44,15.70
2018,04,27,12,45,15.80
2018,04,27,12,46,15.80
2018,04,27,12,47,15.80
2018,04,27,12,48,15.70
2018,04,27,12,49,15.50
2018,04,27,12,50,15.40
2018,04,27,12,51,15.40
2018,04,27,12,52,15.30
2018,04,27,12,53,15.30
2018,04,27,12,54,15.40
2018,04,27,12,55,15.30
2018,04,27,12,56,15.40
2018,04,27,12,57,15.50
2018,04,27,12,58,15.50
2018,04,27,12,59,15.70
2018,04,27,13,00,15.90
2018,04,27,13,01,16.10
2018,04,27,13,02,16.30
2018,04,27,13,03,16.40
2018,04,27,13,04,16.40
2018,04,27,13,05,16.40
2018,04,27,13,06,16.30
2018,04,27,13,07,16.30
2018,04,27,13,08,16.30
2018,04,27,13,09,16.30
2018,04,27,13,10,16.30
2018,04,27,13,11,16.30
2018,04,27,13,12,16.30
2018,04,27,13,13,16.20
2018,04,27,13,14,16.20
2018,04,27,13,15,16.10
2018,04,27,13,16,16.00
2018,04,27,13,17,15.90
2018,04,27,13,18,15.80
2018,04,27,13,19,15.80
2018,04,27,13,20,15.80
2018,04,27,13,21,15.70
2018,04,27,13,22,15.50
2018,04,27,13,23,15.40
2018,04,27,13,24,15.30
2018,04,27,13,25,15.20
2018,04,27,13,26,15.20
2018,04,27,13,27,15.20
2018,04,27,13,28,15.10
2018,04,27,13,29,15.10
2018,04,27,13,30,15.00
2018,04,27,13,31,15.00
2018,04,27,13,32,15.00
2018,04,27,13,33,14.90
2018,04,27,13,34,14.80
2018,04,27,13,35,14.80
2018,04,27,13,36,14.70
2018,04,27,13,37,14.70
2018,04,27,13,38,14.70
2018,04,27,13,39,14.70
2018,04,27,13,40,14.80
2018,04,27,13,41,15.00
2018,04,27,13,42,15.00
2018,04,27,13,43,15.00
2018,04,27,13,44,15.00
2018,04,27,13,45,15.00
2018,04,27,13,46,15.00
2018,04,27,13,47,15.00
2018,04,27,13,48,15.00
2018,04,27,13,49,15.00
2018,04,27,13,50,15.00
2018,04,27,13,51,15.00
2018,04,27,13,52,15.10
2018,04,27,13,53,15.20
2018,04,27,13,54,15.30
2018,04,27,13,55,15.30
2018,04,27,13,56,15.30
2018,04,27,13,57,15.30
2018,04,27,13,58,15.40
2018,04,27,13,59,15.40
2018,04,27,14,00,15.40
2018,04,27,14,01,15.50
2018,04,27,14,02,15.60
2018,04,27,14,03,15.60
2018,04,27,14,04,15.70
2018,04,27,14,05,15.50
2018,04,27,14,06,15.40
2018,04,27,14,07,15.30
2018,04,27,14,08,15.00
2018,04,27,14,09,15.00
2018,04,27,14,10,15.00
2018,04,27,14,11,14.80
2018,04,27,14,12,14.70
2018,04,27,14,13,14.60
2018,04,27,14,14,14.50
2018,04,27,14,15,14.40
2018,04,27,14,16,14.40
2018,04,27,14,17,14.50
2018,04,27,14,18,14.50
2018,04,27,14,19,14.50
2018,04,27,14,20,14.50
2018,04,27,14,21,14.40
2018,04,27,14,22,14.40
2018,04,27,14,23,14.50
2018,04,27,14,24,14.50
2018,04,27,14,25,14.60
2018,04,27,14,26,14.70
2018,04,27,14,27,14.70
2018,04,27,14,28,14.80
2018,04,27,14,29,14.80
2018,04,27,14,30,14.80
2018,04,27,14,31,14.70
2018,04,27,14,32,14.50
2018,04,27,14,33,14.50
2018,04,27,14,34,14.40
2018,04,27,14,35,14.40
2018,04,27,14,36,14.40
2018,04,27,14,37,14.50
2018,04,27,14,38,14.60
2018,04,27,14,39,14.60
2018,04,27,14,40,14.60
2018,04,27,14,41,14.60
2018,04,27,14,42,14.70
2018,04,27,14,43,14.70
2018,04,27,14,44,14.70
2018,04,27,14,45,14.70
2018,04,27,14,46,14.80
2018,04,27,14,47,14.80
2018,04,27,14,48,14.80
2018,04,27,14,49,14.80
2018,04,27,14,50,14.80
2018,04,27,14,51,14.80
2018,04,27,14,52,14.70
2018,04,27,14,53,14.70
2018,04,27,14,54,14.70
2018,04,27,14,55,14.70
2018,04,27,14,56,14.70
2018,04,27,14,57,14.70
2018,04,27,14,58,14.70
2018,04,27,14,59,14.70
2018,04,27,15,00,14.80
2018,04,27,15,01,14.90
2018,04,27,15,02,14.90
2018,04,27,15,03,14.90
2018,04,27,15,04,14.90
2018,04,27,15,05,14.90
2018,04,27,15,06,14.80
2018,04,27,15,07,14.80
2018,04,27,15,08,14.70
2018,04,27,15,09,14.70
2018,04,27,15,10,14.60
2018,04,27,15,11,14.60
2018,04,27,15,12,14.60
2018,04,27,15,13,14.60
2018,04,27,15,14,14.60
2018,04,27,15,15,14.60
2018,04,27,15,16,14.60
2018,04,27,15,17,14.50
2018,04,27,15,18,14.40
2018,04,27,15,19,14.40
2018,04,27,15,20,14.40
2018,04,27,15,21,14.30
2018,04,27,15,22,14.20
2018,04,27,15,23,14.20
2018,04,27,15,24,14.20
2018,04,27,15,25,14.20
2018,04,27,15,26,14.20
2018,04,27,15,27,14.20
2018,04,27,15,28,14.20
2018,04,27,15,29,14.20
2018,04,27,15,30,14.20
2018,04,27,15,31,14.60
2018,04,27,15,32,14.80
2018,04,27,15,33,14.80
2018,04,27,15,34,14.70
2018,04,27,15,35,14.70
2018,04,27,15,36,14.60
2018,04,27,15,37,14.60
2018,04,27,15,38,14.60
2018,04,27,15,39,14.70
2018,04,27,15,40,14.70
2018,04,27,15,41,14.70
2018,04,27,15,42,14.80
2018,04,27,15,43,14.80
2018,04,27,15,44,14.80
2018,04,27,15,45,14.80
2018,04,27,15,46,14.70
2018,04,27,15,47,14.80
2018,04,27,15,48,14.80
2018,04,27,15,49,14.70
2018,04,27,15,50,14.70
2018,04,27,15,51,14.70
2018,04,27,15,52,14.60
2018,04,27,15,53,14.60
2018,04,27,15,54,14.60
2018,04,27,15,55,14.60
2018,04,27,15,56,14.60
2018,04,27,15,57,14.60
2018,04,27,15,58,14.60
2018,04,27,15,59,14.60
2018,04,27,16,00,14.60
2018,04,27,16,01,14.50
2018,04,27,16,02,14.50
2018,04,27,16,03,14.40
2018,04,27,16,04,14.40
2018,04,27,16,05,14.40
2018,04,27,16,06,14.40
2018,04,27,16,07,14.50
2018,04,27,16,08,14.60
2018,04,27,16,09,14.60
2018,04,27,16,10,14.70
2018,04,27,16,11,14.70
2018,04,27,16,12,14.80
2018,04,27,16,13,14.80
2018,04,27,16,14,15.00
2018,04,27,16,15,15.00
2018,04,27,16,16,15.00
2018,04,27,16,17,15.00
2018,04,27,16,18,15.00
2018,04,27,16,19,15.10
2018,04,27,16,20,15.20
2018,04,27,16,21,15.30
2018,04,27,16,22,15.30
2018,04,27,16,23,15.40
2018,04,27,16,24,15.30
2018,04,27,16,25,15.30
2018,04,27,16,26,15.30
2018,04,27,16,27,15.30
2018,04,27,16,28,15.30
2018,04,27,16,29,15.30
2018,04,27,16,30,15.40
2018,04,27,16,31,15.40
2018,04,27,16,32,15.40
2018,04,27,16,33,15.40
2018,04,27,16,34,15.30
2018,04,27,16,35,15.20
2018,04,27,16,36,15.10
2018,04,27,16,37,15.10
2018,04,27,16,38,15.10
2018,04,27,16,39,15.10
2018,04,27,16,40,15.20
2018,04,27,16,41,15.30
2018,04,27,16,42,15.30
2018,04,27,16,43,15.30
2018,04,27,16,44,15.40
2018,04,27,16,45,15.40
2018,04,27,16,46,15.40
2018,04,27,16,47,15.30
2018,04,27,16,48,15.10
2018,04,27,16,49,15.00
2018,04,27,16,50,15.00
2018,04,27,16,51,15.00
2018,04,27,16,52,15.00
2018,04,27,16,53,15.00
2018,04,27,16,54,15.10
2018,04,27,16,55,15.10
2018,04,27,16,56,15.20
2018,04,27,16,57,15.20
2018,04,27,16,58,15.30
2018,04,27,16,59,15.30
2018,04,27,17,00,15.30
2018,04,27,17,01,15.40
2018,04,27,17,02,15.50
2018,04,27,17,03,15.60
2018,04,27,17,04,15.70
2018,04,27,17,05,15.80
2018,04,27,17,06,16.00
2018,04,27,17,07,16.10
2018,04,27,17,08,16.20
2018,04,27,17,09,16.20
2018,04,27,17,10,16.20
2018,04,27,17,11,16.20
2018,04,27,17,12,16.30
2018,04,27,17,13,16.30
2018,04,27,17,14,16.30
2018,04,27,17,15,16.30
2018,04,27,17,16,16.30
2018,04,27,17,17,16.30
2018,04,27,17,18,16.30
2018,04,27,17,19,16.30